Time,TemperatureF,DewpointF,PressureIn,WindDirection,WindDirectionDegrees,WindSpeedMPH,WindSpeedGustMPH,Humidity,HourlyPrecipIn,Conditions,Clouds,dailyrainin,SoftwareType,DateUTC
2013-03-17 00:03:00,62.0,43.0,29.91,SSE,167,1.0,12.0,50,0.00,,,0.00,,2013-03-17 04:03:00,
2013-03-17 00:13:00,62.0,43.0,29.91,SSE,167,1.0,12.0,50,0.00,,,0.00,,2013-03-17 04:13:00,
2013-03-17 00:23:00,61.0,42.0,29.91,SW,216,5.0,14.0,50,0.00,,,0.00,,2013-03-17 04:23:00,
2013-03-17 00:33:00,62.0,43.0,29.91,SE,139,5.0,22.0,50,0.00,,,0.00,,2013-03-17 04:33:00,
2013-03-17 00:43:00,62.0,43.0,29.91,SE,139,5.0,22.0,50,0.00,,,0.00,,2013-03-17 04:43:00,
2013-03-17 00:53:00,61.0,43.0,29.91,SSW,202,7.0,19.0,51,0.00,,,0.00,,2013-03-17 04:53:00,
2013-03-17 01:03:00,61.0,43.0,29.91,SSE,155,8.0,16.0,52,0.00,,,0.00,,2013-03-17 05:03:00,
2013-03-17 01:12:00,61.0,43.0,29.91,SSE,155,8.0,16.0,52,0.00,,,0.00,,2013-03-17 05:12:00,
2013-03-17 01:22:00,61.0,43.0,29.91,SE,146,6.0,16.0,52,0.00,,,0.00,,2013-03-17 05:22:00,
2013-03-17 01:32:00,61.0,44.0,29.91,SE,127,9.0,17.0,53,0.00,,,0.00,,2013-03-17 05:32:00,
2013-03-17 01:42:00,61.0,44.0,29.91,SE,127,9.0,17.0,53,0.00,,,0.00,,2013-03-17 05:42:00,
2013-03-17 01:52:00,61.0,43.0,29.91,South,180,3.0,19.0,52,0.00,,,0.00,,2013-03-17 05:52:00,
2013-03-17 02:02:00,61.0,44.0,29.91,WSW,241,6.0,10.0,53,0.00,,,0.00,,2013-03-17 06:02:00,
2013-03-17 02:12:00,61.0,44.0,29.91,WSW,241,6.0,10.0,53,0.00,,,0.00,,2013-03-17 06:12:00,
2013-03-17 02:22:00,61.0,43.0,29.91,South,187,4.0,12.0,52,0.00,,,0.00,,2013-03-17 06:22:00,
2013-03-17 02:32:00,61.0,43.0,29.91,SSW,205,3.0,15.0,52,0.00,,,0.00,,2013-03-17 06:32:00,
2013-03-17 02:42:00,61.0,43.0,29.91,SSW,205,3.0,15.0,52,0.00,,,0.00,,2013-03-17 06:42:00,
2013-03-17 02:52:00,60.0,42.0,29.91,SSE,155,5.0,12.0,52,0.00,,,0.00,,2013-03-17 06:52:00,
2013-03-17 03:02:00,60.0,43.0,29.91,South,183,2.0,12.0,53,0.00,,,0.00,,2013-03-17 07:02:00,
2013-03-17 03:12:00,60.0,43.0,29.91,South,183,2.0,12.0,53,0.00,,,0.00,,2013-03-17 07:12:00,
2013-03-17 03:22:00,60.0,43.0,29.91,SSE,160,5.0,10.0,54,0.00,,,0.00,,2013-03-17 07:22:00,
2013-03-17 03:32:00,59.0,43.0,29.91,SW,223,1.0,7.0,55,0.00,,,0.00,,2013-03-17 07:32:00,
2013-03-17 03:42:00,59.0,43.0,29.91,SW,223,1.0,7.0,55,0.00,,,0.00,,2013-03-17 07:42:00,
2013-03-17 03:52:00,58.0,42.0,29.91,SSE,163,1.0,6.0,56,0.00,,,0.00,,2013-03-17 07:52:00,
2013-03-17 04:03:00,58.0,42.0,29.90,SW,234,1.0,4.0,56,0.00,,,0.00,,2013-03-17 08:03:00,
2013-03-17 04:13:00,57.0,42.0,29.90,SW,233,0.0,3.0,57,0.00,,,0.00,,2013-03-17 08:13:00,
2013-03-17 04:22:00,57.0,42.0,29.90,SW,233,0.0,3.0,57,0.00,,,0.00,,2013-03-17 08:22:00,
2013-03-17 04:33:00,57.0,42.0,29.90,SW,233,0.0,3.0,58,0.00,,,0.00,,2013-03-17 08:33:00,
2013-03-17 04:42:00,57.0,42.0,29.90,SW,233,0.0,3.0,58,0.00,,,0.00,,2013-03-17 08:42:00,
2013-03-17 04:52:00,56.0,42.0,29.90,SSW,202,1.0,2.0,59,0.00,,,0.00,,2013-03-17 08:52:00,
2013-03-17 05:03:00,55.0,42.0,29.90,SSW,202,0.0,0.0,61,0.00,,,0.00,,2013-03-17 09:03:00,
2013-03-17 05:12:00,55.0,42.0,29.90,SSW,202,0.0,0.0,61,0.00,,,0.00,,2013-03-17 09:12:00,
2013-03-17 05:22:00,54.0,41.0,29.90,SSW,202,0.0,0.0,62,0.00,,,0.00,,2013-03-17 09:22:00,
2013-03-17 05:32:00,53.0,41.0,29.90,SSW,202,0.0,1.0,64,0.00,,,0.00,,2013-03-17 09:32:00,
2013-03-17 05:43:00,53.0,41.0,29.90,SSW,202,0.0,1.0,64,0.00,,,0.00,,2013-03-17 09:43:00,
2013-03-17 05:53:00,53.0,41.0,29.90,SSW,202,0.0,1.0,64,0.00,,,0.00,,2013-03-17 09:53:00,
2013-03-17 06:03:00,52.0,41.0,29.91,ESE,123,0.0,2.0,66,0.00,,,0.00,,2013-03-17 10:03:00,
2013-03-17 06:13:00,52.0,41.0,29.91,ESE,123,0.0,2.0,66,0.00,,,0.00,,2013-03-17 10:13:00,
2013-03-17 06:23:00,52.0,41.0,29.91,ESE,123,0.0,3.0,67,0.00,,,0.00,,2013-03-17 10:23:00,
2013-03-17 06:33:00,51.0,41.0,29.91,East,87,1.0,4.0,69,0.00,,,0.00,,2013-03-17 10:33:00,
2013-03-17 06:42:00,51.0,41.0,29.91,East,87,1.0,4.0,69,0.00,,,0.00,,2013-03-17 10:42:00,
2013-03-17 06:52:00,51.0,41.0,29.91,West,270,0.0,5.0,69,0.00,,,0.00,,2013-03-17 10:52:00,
2013-03-17 07:03:00,51.0,41.0,29.92,WSW,254,0.0,2.0,69,0.00,,,0.00,,2013-03-17 11:03:00,
2013-03-17 07:12:00,51.0,41.0,29.92,WSW,254,0.0,2.0,69,0.00,,,0.00,,2013-03-17 11:12:00,
2013-03-17 07:22:00,51.0,41.0,29.91,WSW,251,1.0,2.0,69,0.00,,,0.00,,2013-03-17 11:22:00,
2013-03-17 07:32:00,52.0,42.0,29.91,WSW,243,1.0,4.0,69,0.00,,,0.00,,2013-03-17 11:32:00,
2013-03-17 07:42:00,52.0,42.0,29.91,WSW,243,1.0,4.0,69,0.00,,,0.00,,2013-03-17 11:42:00,
2013-03-17 07:52:00,52.0,42.0,29.92,SSW,205,1.0,4.0,68,0.00,,,0.00,,2013-03-17 11:52:00,
2013-03-17 08:02:00,53.0,42.0,29.92,East,86,2.0,5.0,66,0.00,,,0.00,,2013-03-17 12:02:00,
2013-03-17 08:12:00,53.0,42.0,29.92,East,86,2.0,5.0,66,0.00,,,0.00,,2013-03-17 12:12:00,
2013-03-17 08:22:00,54.0,43.0,29.92,SSW,197,2.0,6.0,65,0.00,,,0.00,,2013-03-17 12:22:00,
2013-03-17 08:33:00,52.0,42.0,29.94,SSW,204,0.0,2.0,68,0.00,,,0.00,,2013-03-17 12:33:00,
2013-03-17 08:43:00,52.0,42.0,29.94,SSW,204,0.0,2.0,68,0.00,,,0.00,,2013-03-17 12:43:00,
2013-03-17 08:52:00,52.0,42.0,29.93,SSW,204,0.0,0.0,69,0.00,,,0.00,,2013-03-17 12:52:00,
2013-03-17 09:02:00,52.0,43.0,29.94,SSW,204,0.0,2.0,70,0.00,,,0.00,,2013-03-17 13:02:00,
2013-03-17 09:12:00,52.0,43.0,29.94,SSW,204,0.0,2.0,70,0.00,,,0.00,,2013-03-17 13:12:00,
2013-03-17 09:22:00,52.0,43.0,29.94,SSW,204,0.0,1.0,71,0.00,,,0.00,,2013-03-17 13:22:00,
2013-03-17 09:32:00,53.0,43.0,29.94,South,170,1.0,5.0,70,0.00,,,0.00,,2013-03-17 13:32:00,
2013-03-17 09:42:00,53.0,43.0,29.94,South,170,1.0,5.0,70,0.00,,,0.00,,2013-03-17 13:42:00,
2013-03-17 09:52:00,53.0,43.0,29.95,South,170,0.0,2.0,69,0.00,,,0.00,,2013-03-17 13:52:00,
2013-03-17 10:02:00,55.0,44.0,29.95,South,170,0.0,1.0,67,0.00,,,0.00,,2013-03-17 14:02:00,
2013-03-17 10:12:00,55.0,44.0,29.95,South,170,0.0,1.0,67,0.00,,,0.00,,2013-03-17 14:12:00,
2013-03-17 10:22:00,57.0,46.0,29.95,South,170,0.0,3.0,66,0.00,,,0.00,,2013-03-17 14:22:00,
2013-03-17 10:33:00,59.0,46.0,29.95,South,172,2.0,4.0,62,0.00,,,0.00,,2013-03-17 14:33:00,
2013-03-17 10:42:00,59.0,46.0,29.95,South,172,2.0,4.0,62,0.00,,,0.00,,2013-03-17 14:42:00,
2013-03-17 10:52:00,60.0,46.0,29.95,South,171,1.0,3.0,59,0.00,,,0.00,,2013-03-17 14:52:00,
2013-03-17 11:02:00,62.0,46.0,29.95,SSW,205,3.0,6.0,55,0.00,,,0.00,,2013-03-17 15:02:00,
2013-03-17 11:12:00,62.0,46.0,29.95,SSW,205,3.0,6.0,55,0.00,,,0.00,,2013-03-17 15:12:00,
2013-03-17 11:23:00,63.0,47.0,29.95,SW,214,3.0,5.0,56,0.00,,,0.00,,2013-03-17 15:23:00,
2013-03-17 11:33:00,64.0,45.0,29.95,SW,232,2.0,5.0,51,0.00,,,0.00,,2013-03-17 15:33:00,
2013-03-17 11:43:00,64.0,45.0,29.95,SW,232,2.0,5.0,51,0.00,,,0.00,,2013-03-17 15:43:00,
2013-03-17 11:52:00,65.0,46.0,29.95,SSW,209,2.0,7.0,50,0.00,,,0.00,,2013-03-17 15:52:00,
2013-03-17 12:03:00,67.0,46.0,29.95,WSW,245,2.0,7.0,47,0.00,,,0.00,,2013-03-17 16:03:00,
2013-03-17 12:12:00,67.0,46.0,29.95,WSW,245,2.0,7.0,47,0.00,,,0.00,,2013-03-17 16:12:00,
2013-03-17 12:23:00,67.0,45.0,29.95,SW,218,2.0,10.0,45,0.00,,,0.00,,2013-03-17 16:23:00,
2013-03-17 12:33:00,68.0,46.0,29.95,SSW,211,1.0,8.0,45,0.00,,,0.00,,2013-03-17 16:33:00,
2013-03-17 12:43:00,68.0,46.0,29.95,SSW,211,1.0,8.0,45,0.00,,,0.00,,2013-03-17 16:43:00,
2013-03-17 12:52:00,68.0,45.0,29.95,WSW,240,3.0,7.0,43,0.00,,,0.00,,2013-03-17 16:52:00,
2013-03-17 13:03:00,68.0,42.0,29.94,SW,227,5.0,8.0,39,0.00,,,0.00,,2013-03-17 17:03:00,
2013-03-17 13:12:00,68.0,42.0,29.94,SW,227,5.0,8.0,39,0.00,,,0.00,,2013-03-17 17:12:00,
2013-03-17 13:22:00,68.0,43.0,29.94,South,180,3.0,7.0,40,0.00,,,0.00,,2013-03-17 17:22:00,
2013-03-17 13:33:00,69.0,42.0,29.93,SW,227,1.0,7.0,38,0.00,,,0.00,,2013-03-17 17:33:00,
2013-03-17 13:42:00,69.0,42.0,29.93,SW,227,1.0,7.0,38,0.00,,,0.00,,2013-03-17 17:42:00,
2013-03-17 13:52:00,69.0,41.0,29.93,West,277,7.0,8.0,36,0.00,,,0.00,,2013-03-17 17:52:00,
2013-03-17 14:02:00,68.0,42.0,29.92,NW,318,3.0,6.0,39,0.00,,,0.00,,2013-03-17 18:02:00,
2013-03-17 14:12:00,68.0,42.0,29.92,NW,318,3.0,6.0,39,0.00,,,0.00,,2013-03-17 18:12:00,
2013-03-17 14:22:00,68.0,42.0,29.92,WSW,258,4.0,8.0,39,0.00,,,0.00,,2013-03-17 18:22:00,
2013-03-17 14:32:00,68.0,42.0,29.91,WSW,242,2.0,5.0,39,0.00,,,0.00,,2013-03-17 18:32:00,
2013-03-17 14:42:00,68.0,42.0,29.91,WSW,242,2.0,5.0,39,0.00,,,0.00,,2013-03-17 18:42:00,
2013-03-17 14:52:00,68.0,42.0,29.90,West,269,1.0,5.0,39,0.00,,,0.00,,2013-03-17 18:52:00,
2013-03-17 15:02:00,69.0,42.0,29.88,WSW,242,1.0,8.0,38,0.00,,,0.00,,2013-03-17 19:02:00,
2013-03-17 15:12:00,69.0,42.0,29.88,WSW,242,1.0,8.0,38,0.00,,,0.00,,2013-03-17 19:12:00,
2013-03-17 15:22:00,70.0,43.0,29.88,WSW,246,2.0,6.0,37,0.00,,,0.00,,2013-03-17 19:22:00,
2013-03-17 15:33:00,70.0,43.0,29.88,WSW,249,2.0,6.0,37,0.00,,,0.00,,2013-03-17 19:33:00,
2013-03-17 15:42:00,70.0,43.0,29.88,WSW,249,2.0,6.0,37,0.00,,,0.00,,2013-03-17 19:42:00,
2013-03-17 15:53:00,69.0,42.0,29.88,West,278,5.0,7.0,38,0.00,,,0.00,,2013-03-17 19:53:00,
2013-03-17 16:02:00,68.0,43.0,29.88,NW,314,4.0,8.0,41,0.00,,,0.00,,2013-03-17 20:02:00,
2013-03-17 16:12:00,68.0,43.0,29.88,NW,314,4.0,8.0,41,0.00,,,0.00,,2013-03-17 20:12:00,
2013-03-17 16:22:00,68.0,43.0,29.88,East,79,0.0,3.0,41,0.00,,,0.00,,2013-03-17 20:22:00,
2013-03-17 16:33:00,68.0,43.0,29.87,ESE,119,0.0,4.0,41,0.00,,,0.00,,2013-03-17 20:33:00,
2013-03-17 16:42:00,68.0,43.0,29.87,ESE,119,0.0,4.0,41,0.00,,,0.00,,2013-03-17 20:42:00,
2013-03-17 16:52:00,68.0,43.0,29.88,ESE,102,2.0,4.0,41,0.00,,,0.00,,2013-03-17 20:52:00,
2013-03-17 17:03:00,67.0,45.0,29.88,NNE,29,6.0,12.0,45,0.00,,,0.00,,2013-03-17 21:03:00,
2013-03-17 17:12:00,67.0,45.0,29.88,NNE,29,6.0,12.0,45,0.00,,,0.00,,2013-03-17 21:12:00,
2013-03-17 17:22:00,65.0,45.0,29.89,NNE,15,3.0,10.0,48,0.00,,,0.00,,2013-03-17 21:22:00,
2013-03-17 17:33:00,63.0,47.0,29.90,North,9,4.0,10.0,55,0.00,,,0.00,,2013-03-17 21:33:00,
2013-03-17 17:43:00,63.0,47.0,29.90,North,9,4.0,10.0,55,0.00,,,0.00,,2013-03-17 21:43:00,
2013-03-17 17:52:00,63.0,47.0,29.90,NNE,21,5.0,8.0,56,0.00,,,0.00,,2013-03-17 21:52:00,
2013-03-17 18:03:00,61.0,47.0,29.91,North,356,2.0,14.0,60,0.00,,,0.00,,2013-03-17 22:03:00,
2013-03-17 18:13:00,60.0,47.0,29.91,NNE,22,2.0,9.0,62,0.00,,,0.00,,2013-03-17 22:13:00,
2013-03-17 18:23:00,60.0,47.0,29.91,NNE,22,2.0,9.0,62,0.00,,,0.00,,2013-03-17 22:23:00,
2013-03-17 18:33:00,59.0,47.0,29.91,North,359,5.0,8.0,64,0.00,,,0.00,,2013-03-17 22:33:00,
2013-03-17 18:42:00,59.0,47.0,29.91,North,359,5.0,8.0,64,0.00,,,0.00,,2013-03-17 22:42:00,
2013-03-17 18:52:00,58.0,46.0,29.92,NNE,32,3.0,10.0,65,0.00,,,0.00,,2013-03-17 22:52:00,
2013-03-17 19:03:00,58.0,47.0,29.92,North,7,5.0,9.0,66,0.00,,,0.00,,2013-03-17 23:03:00,
2013-03-17 19:12:00,58.0,47.0,29.92,North,7,5.0,9.0,66,0.00,,,0.00,,2013-03-17 23:12:00,
2013-03-17 19:22:00,57.0,46.0,29.92,NNE,29,4.0,9.0,67,0.00,,,0.00,,2013-03-17 23:22:00,
2013-03-17 19:33:00,56.0,45.0,29.93,NE,35,5.0,8.0,67,0.00,,,0.00,,2013-03-17 23:33:00,
2013-03-17 19:42:00,56.0,45.0,29.93,NE,35,5.0,8.0,67,0.00,,,0.00,,2013-03-17 23:42:00,
2013-03-17 19:52:00,55.0,45.0,29.93,NE,49,4.0,9.0,69,0.00,,,0.00,,2013-03-17 23:52:00,
2013-03-17 20:03:00,55.0,45.0,29.94,ESE,114,2.0,6.0,69,0.00,,,0.00,,2013-03-18 00:03:00,
2013-03-17 20:12:00,55.0,45.0,29.94,ESE,114,2.0,6.0,69,0.00,,,0.00,,2013-03-18 00:12:00,
2013-03-17 20:22:00,54.0,44.0,29.95,NE,44,0.0,5.0,70,0.00,,,0.00,,2013-03-18 00:22:00,
2013-03-17 20:33:00,53.0,44.0,29.96,ENE,77,5.0,7.0,71,0.00,,,0.00,,2013-03-18 00:33:00,
2013-03-17 20:42:00,53.0,44.0,29.96,ENE,77,5.0,7.0,71,0.00,,,0.00,,2013-03-18 00:42:00,
2013-03-17 20:52:00,53.0,44.0,29.97,SSE,149,3.0,9.0,71,0.00,,,0.00,,2013-03-18 00:52:00,
2013-03-17 21:02:00,51.0,43.0,29.98,ESE,116,1.0,7.0,73,0.00,,,0.00,,2013-03-18 01:02:00,
2013-03-17 21:12:00,51.0,43.0,29.98,ESE,116,1.0,7.0,73,0.00,,,0.00,,2013-03-18 01:12:00,
2013-03-17 21:22:00,50.0,42.0,29.98,NE,38,3.0,9.0,74,0.00,,,0.00,,2013-03-18 01:22:00,
2013-03-17 21:33:00,50.0,42.0,29.99,ENE,73,3.0,7.0,75,0.00,,,0.00,,2013-03-18 01:33:00,
2013-03-17 21:42:00,50.0,42.0,29.99,ENE,73,3.0,7.0,75,0.00,,,0.00,,2013-03-18 01:42:00,
2013-03-17 21:52:00,49.0,42.0,30.00,ENE,65,3.0,8.0,76,0.00,,,0.00,,2013-03-18 01:52:00,
2013-03-17 22:02:00,48.0,41.0,30.01,NE,56,3.0,8.0,77,0.00,,,0.00,,2013-03-18 02:02:00,
2013-03-17 22:12:00,48.0,41.0,30.01,NE,56,3.0,8.0,77,0.00,,,0.00,,2013-03-18 02:12:00,
2013-03-17 22:22:00,47.0,41.0,30.01,NE,36,2.0,6.0,78,0.00,,,0.00,,2013-03-18 02:22:00,
2013-03-17 22:32:00,47.0,41.0,30.01,ENE,71,5.0,8.0,79,0.00,,,0.00,,2013-03-18 02:32:00,
2013-03-17 22:42:00,47.0,41.0,30.01,ENE,71,5.0,8.0,79,0.00,,,0.00,,2013-03-18 02:42:00,
2013-03-17 22:52:00,46.0,40.0,30.02,North,11,1.0,7.0,79,0.00,,,0.00,,2013-03-18 02:52:00,
2013-03-17 23:03:00,46.0,40.0,30.02,NNE,21,2.0,9.0,80,0.00,,,0.00,,2013-03-18 03:03:00,
2013-03-17 23:11:00,46.0,40.0,30.02,NNE,21,2.0,9.0,80,0.00,,,0.00,,2013-03-18 03:11:00,
2013-03-17 23:22:00,45.0,40.0,30.02,NNE,12,4.0,7.0,81,0.00,,,0.00,,2013-03-18 03:22:00,
2013-03-17 23:33:00,44.0,39.0,30.02,ENE,72,4.0,9.0,81,0.00,,,0.00,,2013-03-18 03:33:00,
2013-03-17 23:42:00,44.0,39.0,30.02,ENE,72,4.0,9.0,81,0.00,,,0.00,,2013-03-18 03:42:00,
2013-03-17 23:53:00,44.0,39.0,30.02,NE,40,5.0,10.0,82,0.00,,,0.00,,2013-03-18 03:53:00,